TimeHST,TemperatureF,Dew PointF,Humidity,Sea Level PressureIn,VisibilityMPH,Wind Direction,Wind SpeedMPH,Gust SpeedMPH,PrecipitationIn,Events,Conditions,WindDirDegrees,DateUTC
12:54 AM,71.1,63.0,75,30.00,10.0,NNE,10.4,17.3,N/A,,Clear,30,2013-01-08 10:54:00
1:54 AM,71.1,61.0,70,29.99,10.0,NE,8.1,-,N/A,,Clear,40,2013-01-08 11:54:00
2:54 AM,71.1,60.1,68,29.97,10.0,NNE,8.1,-,N/A,,Clear,20,2013-01-08 12:54:00
3:54 AM,71.1,63.0,75,29.96,10.0,NNE,9.2,20.7,N/A,,Scattered Clouds,20,2013-01-08 13:54:00
4:54 AM,71.1,63.0,75,29.95,10.0,NNE,12.7,23.0,N/A,,Clear,30,2013-01-08 14:54:00
5:54 AM,71.1,62.1,73,29.95,10.0,NNE,10.4,20.7,N/A,,Partly Cloudy,30,2013-01-08 15:54:00
6:54 AM,69.1,61.0,75,29.97,10.0,Calm,Calm,-,N/A,,Partly Cloudy,0,2013-01-08 16:54:00
7:54 AM,72.0,61.0,68,29.98,10.0,NNE,9.2,-,N/A,,Scattered Clouds,30,2013-01-08 17:54:00
8:54 AM,75.0,61.0,62,29.99,10.0,NE,12.7,21.9,N/A,,Partly Cloudy,40,2013-01-08 18:54:00
9:54 AM,75.9,63.0,64,29.99,10.0,NE,17.3,26.5,N/A,,Scattered Clouds,40,2013-01-08 19:54:00
10:54 AM,77.0,64.9,66,29.98,10.0,NNE,12.7,23.0,N/A,,Partly Cloudy,20,2013-01-08 20:54:00
11:54 AM,77.0,64.0,64,29.96,10.0,NE,15.0,25.3,N/A,,Scattered Clouds,40,2013-01-08 21:54:00
12:54 PM,78.1,62.1,58,29.92,10.0,NE,16.1,25.3,N/A,,Partly Cloudy,40,2013-01-08 22:54:00
1:54 PM,79.0,62.1,56,29.91,10.0,NE,16.1,27.6,N/A,,Scattered Clouds,40,2013-01-08 23:54:00
2:54 PM,77.0,64.0,64,29.91,10.0,NE,21.9,34.5,N/A,,Scattered Clouds,40,2013-01-09 00:54:00
3:54 PM,75.9,63.0,64,29.92,10.0,NE,15.0,27.6,N/A,,Scattered Clouds,40,2013-01-09 01:54:00
4:28 PM,73.4,62.6,69,29.92,10.0,NNE,19.6,28.8,0.00,,Scattered Clouds,30,2013-01-09 02:28:00
4:54 PM,73.9,64.0,71,29.94,10.0,NNE,18.4,31.1,0.00,,Scattered Clouds,30,2013-01-09 02:54:00
5:54 PM,72.0,63.0,73,29.96,10.0,NNE,11.5,23.0,N/A,,Partly Cloudy,30,2013-01-09 03:54:00
6:54 PM,72.0,62.1,71,29.98,10.0,NE,17.3,29.9,N/A,,Scattered Clouds,40,2013-01-09 04:54:00
7:54 PM,71.1,64.0,78,30.00,10.0,NE,16.1,31.1,0.00,,Mostly Cloudy,40,2013-01-09 05:54:00
8:54 PM,71.1,64.0,78,30.01,10.0,NNE,15.0,20.7,N/A,,Scattered Clouds,30,2013-01-09 06:54:00
9:54 PM,70.0,64.9,84,30.01,10.0,NNE,18.4,31.1,0.00,Rain,Light Rain,30,2013-01-09 07:54:00
10:54 PM,71.1,64.0,78,30.02,9.0,NE,16.1,24.2,N/A,,Scattered Clouds,40,2013-01-09 08:54:00
11:54 PM,71.1,64.0,78,30.00,10.0,NE,13.8,26.5,0.00,,Clear,40,2013-01-09 09:54:00